Погода в Северо-Восточных Садах

Россия / Республика Адыгея     44°37′58″N   40°08′12″E
темп.,
°C
ветер,
м/с
пор.,
м/с
влажн.,
%
обл.,
%
осадки,
мм/ч
давл.,
гПа
погр.,
м
7 мая, пт
пт700:00+13зюз3485100 0.0 101355
03:00+10зюз369256 0.1 1014102
06:00+9зюз22805 0.0 101639
09:00+15зсз35635 0.0 1017497
12:00+20сз575414 0.0 10161241
15:00+20ссз565897 0.0 10171148
18:00+18сз237343 0.0 1017189
21:00+13юв2281100 0.0 101811
8 мая, сб
сб800:00+12юв33865 0.0 101826
03:00+11юв33897 0.0 101738
06:00+12ю2287100 0.0 101633
09:00+18юз0170100 0.0 1015340
12:00+21ссв1161100 0.0 1014759
15:00+22ссз115699 0.0 10121041
18:00+21всв227097 0.0 101133
21:00+17юв447398 0.0 101151
9 мая, вс
вс900:00+15зюз4885100 0.3 1010145
03:00+12з3884100 0.4 1010175
06:00+12ссз1189100 0.1 101166
09:00+12зюз5996100 1.1 1012591
12:00+8зсз71296100 3.3 1016847
15:00+8зсз5894100 9.8 1019878
18:00+9зсз469076 1.7 1021641
21:00+6зюз369513 1.9 1024107
10 мая, пн
пн1000:00+5юз479530 0.3 1024116
03:00+5зюз489381 0.4 1024142
06:00+5зюз389423 0.0 1024227
09:00+9зсз578095 1.1 1024658
12:00+12зсз6861100 0.6 10231773
15:00+12зсз71053100 0.7 10212113
18:00+8сз61082100 0.5 1022876
21:00+6зюз61291100 1.4 1022631
11 мая, вт
вт1100:00+6зюз71489100 0.4 1020908
03:00+6зюз61588100 2.1 1018854
06:00+6юз61391100 2.0 1018892
09:00+9юз41184100 3.9 10171296
12:00+11юз3774100 0.4 1016601
15:00+11в2479100 1.4 1018531
18:00+10св4586100 0.4 1019282
21:00+7всв3798100 1.5 1019260